LZB971 LBSF-LBWN

Flight info

Callsign LZB971
Flight time 0h 36m
Altitude 27000
Route UMPIT4S/09 UMPIT DCT DICXA
Aircraft A320/M-SDE3FGHIRWY/LB1

Departure

Time 2026-05-05 19:10
Airport Sofia Airport (LBSF)

Arrival

Time 2026-05-05 19:47
Airport Varna Airport (LBWN)
Time Latitude Longitude Altitude Speed Heading
2026-05-05 18:52 42.68992 23.40922 1750 ft 0 kts 162°
2026-05-05 19:04 42.68992 23.40923 1750 ft 0 kts 162°
2026-05-05 19:04 42.68971 23.40932 1744 ft 6 kts 162°
2026-05-05 19:05 42.68923 23.40914 1747 ft 10 kts 233°
2026-05-05 19:05 42.68917 23.40816 1749 ft 13 kts 283°
2026-05-05 19:05 42.68941 23.40704 1749 ft 12 kts 287°
2026-05-05 19:05 42.68966 23.40590 1746 ft 15 kts 287°
2026-05-05 19:06 42.68996 23.40452 1746 ft 15 kts 287°
2026-05-05 19:06 42.69025 23.40324 1744 ft 16 kts 286°
2026-05-05 19:06 42.69061 23.40155 1749 ft 20 kts 286°
2026-05-05 19:06 42.69098 23.39967 1748 ft 21 kts 278°
2026-05-05 19:07 42.69133 23.39774 1748 ft 22 kts 287°
2026-05-05 19:07 42.69173 23.39593 1748 ft 13 kts 289°
2026-05-05 19:07 42.69238 23.39543 1746 ft 11 kts
2026-05-05 19:07 42.69336 23.39556 1748 ft 15 kts
2026-05-05 19:08 42.69436 23.39567 1748 ft 14 kts
2026-05-05 19:08 42.69528 23.39578 1748 ft 12 kts
2026-05-05 19:08 42.69607 23.39586 1748 ft 10 kts
2026-05-05 19:08 42.69673 23.39594 1748 ft 8 kts
2026-05-05 19:09 42.69724 23.39600 1747 ft 7 kts
2026-05-05 19:09 42.69767 23.39650 1745 ft 9 kts 71°
2026-05-05 19:09 42.69763 23.39802 1750 ft 41 kts 95°
2026-05-05 19:09 42.69719 23.40537 1748 ft 112 kts 95°
2026-05-05 19:10 42.69641 23.41852 1754 ft 165 kts 94°
2026-05-05 19:10 42.69545 23.43488 2271 ft 175 kts 95°
2026-05-05 19:10 42.69440 23.45126 3121 ft 173 kts 95°
2026-05-05 19:10 42.69332 23.46740 3900 ft 170 kts 96°
2026-05-05 19:11 42.69226 23.48331 4597 ft 169 kts 95°
2026-05-05 19:11 42.69436 23.49950 5002 ft 188 kts 65°
2026-05-05 19:11 42.70062 23.51641 5271 ft 213 kts 65°
2026-05-05 19:11 42.70738 23.53558 5649 ft 237 kts 65°
2026-05-05 19:12 42.71472 23.55685 6104 ft 261 kts 66°
2026-05-05 19:12 42.72259 23.57984 6793 ft 273 kts 65°
2026-05-05 19:12 42.73065 23.60351 7655 ft 278 kts 64°
2026-05-05 19:12 42.73881 23.62755 8566 ft 281 kts 64°
2026-05-05 19:13 42.74702 23.65191 9480 ft 285 kts 64°
2026-05-05 19:13 42.75534 23.67663 10233 ft 295 kts 64°
2026-05-05 19:13 42.76386 23.70330 10521 ft 320 kts 71°
2026-05-05 19:13 42.76892 23.73376 10979 ft 336 kts 77°
2026-05-05 19:14 42.77353 23.76522 11748 ft 342 kts 77°
2026-05-05 19:14 42.77814 23.79711 12561 ft 345 kts 77°
2026-05-05 19:14 42.78278 23.82932 13360 ft 348 kts 77°
2026-05-05 19:14 42.78757 23.86270 14148 ft 352 kts 77°
2026-05-05 19:15 42.79230 23.89550 14833 ft 355 kts 77°
2026-05-05 19:15 42.79709 23.92865 15523 ft 359 kts 77°
2026-05-05 19:15 42.80196 23.96214 16196 ft 363 kts 76°
2026-05-05 19:15 42.80689 23.99599 16896 ft 366 kts 76°
2026-05-05 19:16 42.81183 24.03018 17565 ft 370 kts 76°
2026-05-05 19:16 42.81679 24.06474 18234 ft 374 kts 76°
2026-05-05 19:16 42.82175 24.09959 18858 ft 376 kts 76°
2026-05-05 19:16 42.82672 24.13471 19443 ft 379 kts 76°
2026-05-05 19:17 42.83175 24.17011 19990 ft 382 kts 75°
2026-05-05 19:17 42.83686 24.20585 20490 ft 386 kts 75°
2026-05-05 19:17 42.84200 24.24191 21049 ft 390 kts 75°
2026-05-05 19:17 42.84716 24.27838 21584 ft 394 kts 75°
2026-05-05 19:18 42.85235 24.31521 22104 ft 398 kts 75°
2026-05-05 19:18 42.85755 24.35234 22618 ft 401 kts 75°
2026-05-05 19:18 42.86280 24.38984 23126 ft 405 kts 75°
2026-05-05 19:18 42.86810 24.42771 23612 ft 409 kts 75°
2026-05-05 19:19 42.87344 24.46591 24028 ft 412 kts 75°
2026-05-05 19:19 42.87880 24.50444 24460 ft 415 kts 75°
2026-05-05 19:19 42.88416 24.54315 24922 ft 416 kts 75°
2026-05-05 19:19 42.88952 24.58200 25353 ft 418 kts 75°
2026-05-05 19:20 42.89498 24.62161 25735 ft 421 kts 75°
2026-05-05 19:20 42.90042 24.66096 26126 ft 424 kts 75°
2026-05-05 19:20 42.90590 24.70064 26504 ft 427 kts 75°
2026-05-05 19:20 42.91138 24.74053 26890 ft 429 kts 75°
2026-05-05 19:21 42.91688 24.78062 27022 ft 428 kts 75°
2026-05-05 19:21 42.92227 24.82019 27037 ft 422 kts 75°
2026-05-05 19:21 42.92758 24.85938 27036 ft 419 kts 75°
2026-05-05 19:21 42.93287 24.89834 27037 ft 418 kts 75°
2026-05-05 19:22 42.93817 24.93737 27040 ft 418 kts 75°
2026-05-05 19:22 42.94344 24.97643 27043 ft 418 kts 75°
2026-05-05 19:22 42.94868 25.01542 27035 ft 417 kts 75°
2026-05-05 19:22 42.95393 25.05436 27042 ft 416 kts 70°
2026-05-05 19:23 42.95940 25.09304 27131 ft 415 kts 72°
2026-05-05 19:23 42.96374 25.13178 27209 ft 416 kts 74°
2026-05-05 19:23 42.96687 25.17116 27136 ft 418 kts 80°
2026-05-05 19:23 42.96997 25.21060 27056 ft 416 kts 76°
2026-05-05 19:24 42.97536 25.24924 27041 ft 413 kts 73°
2026-05-05 19:24 42.98190 25.28728 27024 ft 412 kts 72°
2026-05-05 19:24 42.98857 25.32533 27011 ft 412 kts 72°
2026-05-05 19:24 42.99482 25.36356 27012 ft 413 kts 73°
2026-05-05 19:25 43.00048 25.40205 27006 ft 414 kts 75°
2026-05-05 19:25 43.00566 25.44074 27009 ft 414 kts 75°
2026-05-05 19:25 43.01056 25.47958 27004 ft 415 kts 76°
2026-05-05 19:25 43.01542 25.51902 27009 ft 415 kts 76°
2026-05-05 19:26 43.02023 25.55791 27012 ft 415 kts 76°
2026-05-05 19:26 43.02508 25.59670 27019 ft 415 kts 76°
2026-05-05 19:26 43.03003 25.63556 27024 ft 415 kts 76°
2026-05-05 19:26 43.03503 25.67428 27020 ft 414 kts 75°
2026-05-05 19:27 43.04009 25.71308 27022 ft 414 kts 75°
2026-05-05 19:27 43.04512 25.75189 27017 ft 414 kts 75°
2026-05-05 19:27 43.05011 25.79068 27021 ft 414 kts 76°
2026-05-05 19:27 43.05505 25.82952 27019 ft 415 kts 76°
2026-05-05 19:28 43.05993 25.86820 27033 ft 414 kts 76°
2026-05-05 19:28 43.06483 25.90716 26806 ft 413 kts 76°
2026-05-05 19:28 43.06802 25.93268 26443 ft 411 kts 76°
2026-05-05 19:28 43.07279 25.97092 25887 ft 407 kts 76°
2026-05-05 19:29 43.07754 26.00889 25330 ft 403 kts 76°
2026-05-05 19:29 43.08224 26.04651 24812 ft 399 kts 76°
2026-05-05 19:29 43.08689 26.08386 24285 ft 395 kts 77°
2026-05-05 19:29 43.09145 26.12068 23791 ft 391 kts 77°
2026-05-05 19:30 43.09597 26.15717 23245 ft 388 kts 77°
2026-05-05 19:30 43.10045 26.19329 22786 ft 382 kts 77°
2026-05-05 19:30 43.10484 26.22890 22307 ft 377 kts 77°
2026-05-05 19:30 43.10922 26.26451 21863 ft 372 kts 77°
2026-05-05 19:31 43.11347 26.29917 21417 ft 368 kts 77°
2026-05-05 19:31 43.11769 26.33358 20960 ft 365 kts 77°
2026-05-05 19:31 43.12185 26.36764 20507 ft 362 kts 77°
2026-05-05 19:31 43.12600 26.40160 20046 ft 360 kts 77°
2026-05-05 19:32 43.13008 26.43521 19581 ft 358 kts 77°
2026-05-05 19:32 43.13411 26.46875 19105 ft 356 kts 77°
2026-05-05 19:32 43.13812 26.50218 18634 ft 355 kts 77°
2026-05-05 19:32 43.14214 26.53542 18128 ft 354 kts 77°
2026-05-05 19:33 43.14616 26.56864 17632 ft 352 kts 77°
2026-05-05 19:33 43.15011 26.60159 17180 ft 349 kts 77°
2026-05-05 19:33 43.15399 26.63429 16713 ft 346 kts 77°
2026-05-05 19:33 43.15783 26.66671 16253 ft 345 kts 77°
2026-05-05 19:34 43.16166 26.69902 15793 ft 343 kts 77°
2026-05-05 19:34 43.16549 26.73113 15338 ft 341 kts 77°
2026-05-05 19:34 43.16932 26.76307 14904 ft 339 kts 77°
2026-05-05 19:35 43.17689 26.82682 13977 ft 335 kts 77°
2026-05-05 19:35 43.18059 26.85830 13488 ft 333 kts 77°
2026-05-05 19:35 43.18426 26.88954 13027 ft 330 kts 77°
2026-05-05 19:35 43.18788 26.92051 12515 ft 329 kts 77°
2026-05-05 19:36 43.19146 26.95130 12023 ft 327 kts 77°
2026-05-05 19:36 43.19500 26.98190 11568 ft 324 kts 77°
2026-05-05 19:36 43.19850 27.01224 11104 ft 321 kts 77°
2026-05-05 19:36 43.20303 27.04193 10627 ft 315 kts 69°
2026-05-05 19:37 43.21195 27.06879 10351 ft 303 kts 56°
2026-05-05 19:37 43.22388 27.09172 10225 ft 289 kts 51°
2026-05-05 19:37 43.23562 27.11341 10109 ft 277 kts 51°
2026-05-05 19:37 43.24692 27.13437 9896 ft 270 kts 51°
2026-05-05 19:38 43.25800 27.15488 9657 ft 268 kts 51°
2026-05-05 19:38 43.26926 27.17566 9189 ft 269 kts 51°
2026-05-05 19:38 43.27866 27.19741 8563 ft 267 kts 65°
2026-05-05 19:38 43.28292 27.22221 7861 ft 270 kts 82°
2026-05-05 19:39 43.28187 27.24802 7179 ft 272 kts 93°
2026-05-05 19:39 43.27965 27.27320 6881 ft 257 kts 92°
2026-05-05 19:39 43.27759 27.29713 6746 ft 248 kts 93°
2026-05-05 19:39 43.27560 27.32005 6629 ft 236 kts 93°
2026-05-05 19:40 43.27375 27.34187 6527 ft 225 kts 93°
2026-05-05 19:40 43.27197 27.36296 6442 ft 221 kts 93°
2026-05-05 19:40 43.27021 27.38393 6270 ft 220 kts 93°
2026-05-05 19:40 43.26844 27.40478 5999 ft 220 kts 93°
2026-05-05 19:41 43.26665 27.42582 5707 ft 220 kts 93°
2026-05-05 19:41 43.26487 27.44672 5414 ft 219 kts 93°
2026-05-05 19:41 43.26310 27.46744 5124 ft 220 kts 93°
2026-05-05 19:41 43.26134 27.48806 4834 ft 215 kts 94°
2026-05-05 19:42 43.25960 27.50823 4545 ft 211 kts 94°
2026-05-05 19:42 43.25790 27.52803 4264 ft 207 kts 94°
2026-05-05 19:42 43.25623 27.54749 3993 ft 205 kts 94°
2026-05-05 19:42 43.25455 27.56706 3718 ft 208 kts 95°
2026-05-05 19:43 43.25284 27.58678 3441 ft 207 kts 95°
2026-05-05 19:43 43.25116 27.60623 3168 ft 204 kts 95°
2026-05-05 19:43 43.24949 27.62538 2896 ft 201 kts 96°
2026-05-05 19:43 43.24787 27.64408 2656 ft 193 kts 97°
2026-05-05 19:44 43.24632 27.66186 2385 ft 183 kts 97°
2026-05-05 19:44 43.24484 27.67877 2138 ft 175 kts 97°
2026-05-05 19:44 43.24343 27.69497 1914 ft 168 kts 98°
2026-05-05 19:44 43.24206 27.71063 1682 ft 161 kts 98°
2026-05-05 19:45 43.24075 27.72555 1461 ft 154 kts 97°
2026-05-05 19:45 43.23950 27.73978 1268 ft 146 kts 97°
2026-05-05 19:45 43.23832 27.75316 1087 ft 140 kts 97°
2026-05-05 19:45 43.23716 27.76629 885 ft 138 kts 96°
2026-05-05 19:46 43.23602 27.77928 700 ft 137 kts 96°
2026-05-05 19:46 43.23486 27.79238 513 ft 136 kts 96°
2026-05-05 19:46 43.23369 27.80524 321 ft 136 kts 97°
2026-05-05 19:46 43.23265 27.81780 226 ft 122 kts 97°
2026-05-05 19:47 43.23190 27.82612 222 ft 48 kts 97°
2026-05-05 19:47 43.23151 27.83033 224 ft 42 kts 97°
2026-05-05 19:47 43.23141 27.83255 225 ft 12 kts 62°
2026-05-05 19:47 43.23218 27.83293 222 ft 12 kts
2026-05-05 19:48 43.23300 27.83307 222 ft 12 kts
2026-05-05 19:48 43.23379 27.83304 222 ft 11 kts 327°
2026-05-05 19:48 43.23398 27.83212 223 ft 10 kts 277°
2026-05-05 19:48 43.23406 27.83125 223 ft 9 kts 277°
2026-05-05 19:49 43.23412 27.83047 224 ft 8 kts 277°
2026-05-05 19:49 43.23417 27.83000 222 ft 7 kts 277°
2026-05-05 19:49 43.23424 27.82916 222 ft 6 kts 277°
2026-05-05 19:49 43.23430 27.82862 222 ft 5 kts 283°
2026-05-05 19:50 43.23456 27.82841 222 ft 5 kts 350°
2026-05-05 19:50 43.23484 27.82842 222 ft 3 kts
2026-05-05 19:50 43.23497 27.82844 222 ft 0 kts